Kaltag, AK

7:33 PM AKDT on July 23, 2016 (GMT -0800)
Kaltag

Weather History for PAKV - September, 2012

Change the Weather History Date:

Thursday, September 20, 2012

  Actual Average (PAGA) Record (PAGA)
Temperature  
Mean Temperature 40 °F -  
Max Temperature 48 °F 45 °F 62 °F (1999)
Min Temperature 33 °F 33 °F 10 °F (2001)
Degree Days  
Heating Degree Days 24    
Moisture  
Dew Point 38 °F    
Average Humidity 91    
Maximum Humidity 100    
Minimum Humidity 63    
Precipitation  
Precipitation 0.00 in - - ()
Sea Level Pressure  
Sea Level Pressure 29.70 in    
Wind  
Wind Speed 1 mph (SW)    
Max Wind Speed 6 mph    
Max Gust Speed -    
Visibility 10 miles    
Events Rain , Snow    
Averages and records for this station are not official NWS values.
T = Trace of Precipitation, MM = Missing Value Source: NWS Daily Summary

Daily Weather History Graph

Daily Weather History Graph

Search for Another Location

Airport or City:

Trip Planner

Search our weather history database for the weather conditions in past years. The results will help you decide how hot, cold, wet, or windy it might be!

Date:

Astronomy

Sep. 20, 2012 Rise Set
Actual Time 8:14 AM AKDT 8:40 PM AKDT
Civil Twilight 7:25 AM AKDT 9:28 PM AKDT
Nautical Twilight 6:26 AM AKDT 10:27 PM AKDT
Astronomical Twilight 5:16 AM AKDT 11:36 PM AKDT
Moon 4:09 PM AKDT (9/20) 9:27 PM AKDT (9/20)
Length of Visible Light 14h 02m
Length of Day
12h 26m
Waxing Crescent, 28% of the Moon is Illuminated
Sep 20
Waxing Crescent
Sep 22
First Quarter
Sep 29
Full
Oct 7
Last Quarter
Oct 15
New

Hourly Weather History & Observations

Time (AKDT) Temp. Windchill Dew Point Humidity Pressure Visibility Wind Dir Wind Speed Gust Speed Precip Events Conditions
12:53 AM 42.1 °F - 42.1 °F 100% 29.59 in 10.0 mi Calm Calm - N/A Rain Rain
1:10 AM 42.8 °F - 42.8 °F 100% 29.58 in 10.0 mi Calm Calm - N/A Rain Rain
1:35 AM 42.8 °F - 42.8 °F 100% 29.59 in 5.0 mi Calm Calm - N/A Rain Rain
1:53 AM 42.1 °F - 42.1 °F 100% 29.61 in 10.0 mi Calm Calm - N/A Rain Rain
2:07 AM 42.8 °F - 41.0 °F 93% 29.60 in 10.0 mi Calm Calm - N/A Rain Rain
2:29 AM 42.8 °F - 41.0 °F 93% 29.61 in 10.0 mi Calm Calm - N/A Rain Rain
2:53 AM 41.0 °F 39.0 °F 39.9 °F 96% 29.62 in 10.0 mi SW 3.5 mph - N/A Rain Rain
3:53 AM 39.0 °F - 37.9 °F 96% 29.65 in 10.0 mi Calm Calm - N/A Rain Rain
4:53 AM 39.0 °F - 37.9 °F 96% 29.67 in 10.0 mi Calm Calm - N/A Rain Rain
5:53 AM 34.0 °F - 34.0 °F 100% 29.68 in 10.0 mi Calm Calm - N/A Rain Rain
6:23 AM 33.8 °F - 33.8 °F 100% 29.68 in 10.0 mi Calm Calm - N/A Rain Rain
6:36 AM 35.6 °F - 35.6 °F 100% 29.68 in 10.0 mi Calm Calm - N/A Rain Rain
6:53 AM 36.0 °F - 36.0 °F 100% 29.69 in 10.0 mi Calm Calm - N/A Snow Light Snow
7:05 AM 35.6 °F - 35.6 °F 100% 29.68 in 10.0 mi Calm Calm - N/A Rain Rain
7:53 AM 37.0 °F - 36.0 °F 96% 29.71 in 10.0 mi Calm Calm - N/A Rain Rain
8:53 AM 37.0 °F - 37.0 °F 100% 29.73 in 10.0 mi Calm Calm - N/A Rain Rain
9:27 AM 37.4 °F - 37.4 °F 100% 29.73 in 10.0 mi Calm Calm - N/A Rain Rain
9:45 AM 37.4 °F - 37.4 °F 100% 29.73 in 10.0 mi Calm Calm - N/A Rain Rain
9:53 AM 39.0 °F - 37.9 °F 96% 29.75 in 10.0 mi Calm Calm - N/A Rain Rain
10:32 AM 41.0 °F - 39.2 °F 93% 29.74 in 10.0 mi Calm Calm - N/A Rain Rain
10:53 AM 42.1 °F - 39.9 °F 92% 29.75 in 10.0 mi Calm Calm - N/A Rain Rain
11:04 AM 42.8 °F 40.1 °F 39.2 °F 87% 29.74 in 10.0 mi WSW 4.6 mph - N/A Rain Rain
11:20 AM 42.8 °F - 39.2 °F 87% 29.74 in 10.0 mi Calm Calm - N/A Rain Rain
11:53 AM 42.1 °F - 39.0 °F 89% 29.76 in 10.0 mi Calm Calm - N/A Rain Rain
12:45 PM 42.8 °F 40.1 °F 39.2 °F 87% 29.75 in 10.0 mi Variable 4.6 mph - N/A Rain Rain
12:53 PM 43.0 °F 40.3 °F 41.0 °F 93% 29.75 in 10.0 mi Variable 4.6 mph - N/A Rain Rain
1:53 PM 45.0 °F - 39.9 °F 82% 29.75 in 10.0 mi Calm Calm - N/A Rain Rain
2:53 PM 46.0 °F 44.8 °F 39.0 °F 76% 29.75 in 10.0 mi SE 3.5 mph - N/A Rain Rain
3:53 PM 45.0 °F - 39.0 °F 80% 29.75 in 10.0 mi Calm Calm - N/A Rain Rain
4:53 PM 48.0 °F - 36.0 °F 63% 29.73 in 10.0 mi SW 5.8 mph - N/A Rain Rain
5:53 PM 46.9 °F - 36.0 °F 66% 29.72 in 10.0 mi Calm Calm - N/A Rain Light Rain
6:53 PM 46.9 °F - 37.0 °F 68% 29.72 in 10.0 mi Calm Calm - N/A Rain Light Rain
7:53 PM 45.0 °F - 39.0 °F 80% 29.72 in 10.0 mi Calm Calm - N/A Rain Light Rain
8:53 PM 39.0 °F - 37.0 °F 93% 29.71 in 10.0 mi Calm Calm - N/A Rain Light Rain
9:53 PM 39.0 °F - 36.0 °F 89% 29.71 in 10.0 mi Calm Calm - N/A Rain Light Rain
10:53 PM 37.0 °F 34.5 °F 35.1 °F 93% 29.71 in 10.0 mi SW 3.5 mph - N/A Rain Light Rain
11:53 PM 37.0 °F 34.5 °F 35.1 °F 93% 29.72 in 10.0 mi SW 3.5 mph - N/A Rain Light Rain